Météo par heure à Vselyub

Ce jour, 2 Octobre, Vendredi

Heure Température Précipitation Vent Pression Humidité
00:00 +12°C° 0 mm 5 m/s 743 mmHg 72%
01:00 +12°C° 0 mm 5 m/s 743 mmHg 72%
02:00 +10°C° 0 mm 5 m/s 743 mmHg 73%
03:00 +10°C° 0 mm 5 m/s 743 mmHg 72%
04:00 +10°C° 0 mm 5 m/s 743 mmHg 71%
05:00 +10°C° 0 mm 5 m/s 743 mmHg 71%
06:00 +10°C° 0.2 mm 5 m/s 743 mmHg 75%
07:00 +10°C° 0.2 mm 5 m/s 743 mmHg 80%
08:00 +10°C° 0.2 mm 6 m/s 743 mmHg 85%
09:00 +12°C° 0 mm 5 m/s 743 mmHg 81%
10:00 +13°C° 0 mm 5 m/s 743 mmHg 77%
11:00 +14°C° 0 mm 5 m/s 743 mmHg 72%
12:00 +14°C° 0 mm 5 m/s 743 mmHg 71%
13:00 +15°C° 0 mm 5 m/s 744 mmHg 70%
14:00 +16°C° 0 mm 5 m/s 744 mmHg 69%
15:00 +15°C° 0 mm 4 m/s 744 mmHg 71%
16:00 +15°C° 0 mm 4 m/s 744 mmHg 74%
17:00 +14°C° 0 mm 3 m/s 744 mmHg 77%
18:00 +14°C° 0.1 mm 4 m/s 744 mmHg 80%
19:00 +13°C° 0.1 mm 4 m/s 744 mmHg 83%
20:00 +12°C° 0.1 mm 5 m/s 744 mmHg 87%
21:00 +12°C° 0 mm 5 m/s 744 mmHg 89%
22:00 +12°C° 0 mm 4 m/s 744 mmHg 90%
23:00 +12°C° 0 mm 4 m/s 744 mmHg 92%

Demain, 3 Octobre, Samedi

Heure Température Précipitation Vent Pression Humidité
00:00 +11°C° 0 mm 4 m/s 744 mmHg 93%
01:00 +11°C° 0 mm 4 m/s 744 mmHg 94%
02:00 +11°C° 0 mm 4 m/s 744 mmHg 95%
03:00 +11°C° 0 mm 4 m/s 744 mmHg 95%
04:00 +10°C° 0 mm 5 m/s 744 mmHg 95%
05:00 +10°C° 0 mm 5 m/s 744 mmHg 95%
06:00 +10°C° 0 mm 5 m/s 744 mmHg 93%
07:00 +10°C° 0 mm 5 m/s 744 mmHg 91%
08:00 +10°C° 0 mm 5 m/s 744 mmHg 89%
09:00 +12°C° 0 mm 5 m/s 744 mmHg 86%
10:00 +13°C° 0 mm 5 m/s 744 mmHg 83%
11:00 +14°C° 0 mm 5 m/s 745 mmHg 80%
12:00 +15°C° 0.1 mm 6 m/s 744 mmHg 79%
13:00 +15°C° 0.1 mm 6 m/s 744 mmHg 78%
14:00 +16°C° 0.1 mm 6 m/s 744 mmHg 76%
15:00 +15°C° 0.2 mm 6 m/s 744 mmHg 78%
16:00 +15°C° 0.2 mm 7 m/s 744 mmHg 80%
17:00 +15°C° 0.2 mm 7 m/s 743 mmHg 82%
18:00 +14°C° 0 mm 7 m/s 743 mmHg 83%
19:00 +14°C° 0 mm 6 m/s 743 mmHg 84%
20:00 +14°C° 0 mm 6 m/s 743 mmHg 85%
21:00 +14°C° 0 mm 6 m/s 743 mmHg 84%
22:00 +14°C° 0 mm 6 m/s 743 mmHg 83%
23:00 +15°C° 0 mm 6 m/s 743 mmHg 81%

Après-demain, 4 Octobre, Dimanche

Heure Température Précipitation Vent Pression Humidité
00:00 +15°C° 0 mm 6 m/s 743 mmHg 81%
01:00 +15°C° 0 mm 6 m/s 743 mmHg 81%
02:00 +15°C° 0 mm 6 m/s 743 mmHg 81%
03:00 +15°C° 0 mm 6 m/s 743 mmHg 81%
04:00 +15°C° 0 mm 6 m/s 743 mmHg 82%
05:00 +15°C° 0 mm 6 m/s 743 mmHg 82%
06:00 +15°C° 0 mm 6 m/s 743 mmHg 82%
07:00 +15°C° 0 mm 6 m/s 742 mmHg 81%
08:00 +15°C° 0 mm 6 m/s 742 mmHg 81%
09:00 +16°C° 0 mm 7 m/s 743 mmHg 75%
10:00 +18°C° 0 mm 7 m/s 743 mmHg 70%
11:00 +20°C° 0 mm 8 m/s 743 mmHg 65%
12:00 +21°C° 0 mm 8 m/s 743 mmHg 64%
13:00 +21°C° 0 mm 8 m/s 743 mmHg 62%
14:00 +22°C° 0 mm 8 m/s 743 mmHg 61%
15:00 +21°C° 0 mm 7 m/s 743 mmHg 63%
16:00 +21°C° 0 mm 7 m/s 743 mmHg 65%
17:00 +21°C° 0 mm 6 m/s 743 mmHg 67%
18:00 +20°C° 0 mm 6 m/s 743 mmHg 68%
19:00 +20°C° 0 mm 6 m/s 743 mmHg 69%
20:00 +19°C° 0 mm 6 m/s 743 mmHg 71%
21:00 +19°C° 0 mm 6 m/s 744 mmHg 73%
22:00 +19°C° 0 mm 5 m/s 744 mmHg 74%
23:00 +17°C° 0 mm 5 m/s 744 mmHg 76%

5 Octobre, Lundi

Heure Température Précipitation Vent Pression Humidité
00:00 +17°C° 0 mm 5 m/s 744 mmHg 77%
01:00 +16°C° 0 mm 5 m/s 745 mmHg 78%
02:00 +16°C° 0 mm 5 m/s 745 mmHg 78%
03:00 +16°C° 0.3 mm 5 m/s 745 mmHg 81%
04:00 +15°C° 0.3 mm 5 m/s 745 mmHg 83%
05:00 +15°C° 0.3 mm 5 m/s 745 mmHg 85%
06:00 +15°C° 0.4 mm 5 m/s 745 mmHg 85%
07:00 +15°C° 0.4 mm 5 m/s 745 mmHg 86%
08:00 +16°C° 0.4 mm 5 m/s 744 mmHg 86%
09:00 +16°C° 0 mm 6 m/s 744 mmHg 81%
10:00 +17°C° 0 mm 6 m/s 744 mmHg 76%
11:00 +18°C° 0 mm 7 m/s 744 mmHg 71%
12:00 +20°C° 0 mm 7 m/s 744 mmHg 70%
13:00 +21°C° 0 mm 7 m/s 744 mmHg 68%
14:00 +22°C° 0 mm 7 m/s 744 mmHg 66%
15:00 +21°C° 0 mm 6 m/s 743 mmHg 68%
16:00 +21°C° 0 mm 6 m/s 743 mmHg 70%
17:00 +20°C° 0 mm 6 m/s 743 mmHg 72%
18:00 +20°C° 0 mm 6 m/s 743 mmHg 73%
19:00 +20°C° 0 mm 6 m/s 743 mmHg 74%
20:00 +20°C° 0 mm 6 m/s 743 mmHg 75%
21:00 +20°C° 0.1 mm 6 m/s 743 mmHg 76%
22:00 +19°C° 0.1 mm 6 m/s 743 mmHg 77%
23:00 +19°C° 0.1 mm 5 m/s 743 mmHg 79%

6 Octobre, Mardi

Heure Température Précipitation Vent Pression Humidité
00:00 +19°C° 0.2 mm 5 m/s 743 mmHg 79%
01:00 +17°C° 0.2 mm 5 m/s 743 mmHg 80%
02:00 +17°C° 0.2 mm 5 m/s 742 mmHg 80%
03:00 +16°C° 0.2 mm 5 m/s 742 mmHg 82%
04:00 +16°C° 0.2 mm 5 m/s 742 mmHg 84%
05:00 +16°C° 0.2 mm 5 m/s 743 mmHg 86%
06:00 +16°C° 0 mm 5 m/s 743 mmHg 86%
07:00 +16°C° 0 mm 5 m/s 743 mmHg 87%
08:00 +16°C° 0 mm 5 m/s 743 mmHg 87%
09:00 +17°C° 0 mm 5 m/s 743 mmHg 84%
10:00 +19°C° 0 mm 5 m/s 744 mmHg 81%
11:00 +20°C° 0 mm 5 m/s 744 mmHg 77%
12:00 +20°C° 0.1 mm 5 m/s 744 mmHg 75%
13:00 +21°C° 0.1 mm 5 m/s 744 mmHg 73%
14:00 +21°C° 0.1 mm 4 m/s 744 mmHg 71%
15:00 +20°C° 0.2 mm 4 m/s 744 mmHg 76%
16:00 +19°C° 0.2 mm 4 m/s 744 mmHg 81%
17:00 +18°C° 0.2 mm 4 m/s 744 mmHg 85%
18:00 +17°C° 1.2 mm 4 m/s 743 mmHg 88%
19:00 +16°C° 1.2 mm 3 m/s 743 mmHg 91%
20:00 +16°C° 1.2 mm 3 m/s 743 mmHg 94%
21:00 +16°C° 0.3 mm 3 m/s 743 mmHg 89%
22:00 +15°C° 0.3 mm 4 m/s 742 mmHg 85%
23:00 +15°C° 0.3 mm 4 m/s 742 mmHg 81%

7 Octobre, Mercredi

Heure Température Précipitation Vent Pression Humidité
00:00 +15°C° 0 mm 5 m/s 742 mmHg 78%
01:00 +15°C° 0 mm 5 m/s 741 mmHg 75%
02:00 +15°C° 0 mm 6 m/s 741 mmHg 72%
03:00 +15°C° 0 mm 6 m/s 741 mmHg 73%
04:00 +15°C° 0 mm 5 m/s 741 mmHg 73%
05:00 +15°C° 0 mm 5 m/s 741 mmHg 73%
06:00 +15°C° 0.2 mm 5 m/s 742 mmHg 79%
07:00 +14°C° 0.2 mm 5 m/s 742 mmHg 85%
08:00 +14°C° 0.2 mm 5 m/s 743 mmHg 90%
09:00 +14°C° 0.1 mm 5 m/s 743 mmHg 87%
10:00 +14°C° 0.1 mm 4 m/s 744 mmHg 84%
11:00 +14°C° 0.1 mm 3 m/s 745 mmHg 81%
12:00 +16°C° 0 mm 3 m/s 745 mmHg 77%
13:00 +17°C° 0 mm 2 m/s 745 mmHg 73%
14:00 +17°C° 0 mm 2 m/s 746 mmHg 69%
15:00 +17°C° 0 mm 2 m/s 746 mmHg 72%
16:00 +16°C° 0 mm 2 m/s 746 mmHg 75%
17:00 +16°C° 0 mm 1 m/s 746 mmHg 78%
18:00 +15°C° 0 mm 2 m/s 746 mmHg 82%
19:00 +14°C° 0 mm 2 m/s 747 mmHg 86%
20:00 +13°C° 0 mm 2 m/s 747 mmHg 91%
21:00 +13°C° 0 mm 2 m/s 747 mmHg 92%
22:00 +13°C° 0 mm 2 m/s 747 mmHg 93%
23:00 +13°C° 0 mm 1 m/s 747 mmHg 94%
Voir plus